Weather History for Louisburg, NC

Change the Weather History Date:

Thursday, September 13, 2012

  Actual Average (KRDU) Record (KRDU)
Temperature  
Mean Temperature 72 °F 73 °F  
Max Temperature 78 °F 83 °F 94 °F (1936)
Min Temperature 66 °F 63 °F 48 °F (1985)
Degree Days  
Heating Degree Days 0 0  
Month to date heating degree days 0  
Since 1 July heating degree days 1  
Cooling Degree Days 7 8  
Month to date cooling degree days 128  
Year to date cooling degree days 1569  
Growing Degree Days 22 (Base 50)    
Moisture  
Dew Point 60 °F    
Average Humidity 62    
Maximum Humidity 100    
Minimum Humidity 51    
Precipitation  
Precipitation 0.00 in 0.16 in 2.36 in (1964)
Month to date precipitation 2.06  
Year to date precipitation 31.60  
Sea Level Pressure  
Sea Level Pressure 30.32 in    
Wind  
Wind Speed 1 mph (NE)    
Max Wind Speed 8 mph    
Max Gust Speed -    
Visibility 10 miles    
Events      
T = Trace of Precipitation, MM = Missing Value Source: NWS Daily Summary

Daily Weather History Graph

Daily Weather History Graph

Search for Another Location

Airport:

Trip Planner

Search our weather history database for the weather conditions in past years. The results will help you decide how hot, cold, wet, or windy it might be!

Date:

Astronomy

Sep. 13, 2012 Rise Set
Actual Time 6:54 AM EDT 7:22 PM EDT
Civil Twilight 6:28 AM EDT 7:48 PM EDT
Nautical Twilight 5:58 AM EDT 8:18 PM EDT
Astronomical Twilight 5:27 AM EDT 8:49 PM EDT
Moon 4:15 AM EDT (9/13) 5:42 PM EDT (9/13)
Length of Visible Light 13h 19m
Length of Day
12h 28m
Waning Crescent, 7% of the Moon is Illuminated
Sep 13
Waning Crescent
Sep 15
New
Sep 22
First Quarter
Sep 29
Full
Oct 8
Last Quarter

Hourly Weather History & Observations

Time (EDT) Temp. Dew Point Humidity Pressure Visibility Wind Dir Wind Speed Gust Speed Precip Events Conditions
12:15 AM - - N/A% 30.34 in 10.0 mi Calm Calm - N/A   Clear
12:35 AM - - N/A% 30.34 in 10.0 mi Calm Calm - N/A   Clear
12:55 AM - - N/A% 30.34 in 10.0 mi Calm Calm - N/A   Clear
1:15 AM - - N/A% 30.35 in 10.0 mi Calm Calm - N/A   Clear
1:35 AM - - N/A% 30.34 in 10.0 mi Calm Calm - N/A   Clear
1:55 AM - - N/A% 30.34 in 10.0 mi Calm Calm - N/A   Clear
2:15 AM - - N/A% 30.34 in 10.0 mi Calm Calm - N/A   Clear
2:35 AM - - N/A% 30.34 in 10.0 mi Calm Calm - N/A   Clear
2:55 AM - - N/A% 30.33 in 10.0 mi Calm Calm - N/A   Clear
3:15 AM - - N/A% 30.33 in 10.0 mi Calm Calm - N/A   Clear
3:35 AM - - N/A% 30.33 in 10.0 mi Calm Calm - N/A   Clear
3:55 AM - - N/A% 30.33 in 10.0 mi Calm Calm - N/A   Clear
4:15 AM - - N/A% 30.33 in 10.0 mi Calm Calm - N/A   Clear
4:35 AM - - N/A% 30.33 in 10.0 mi Calm Calm - N/A   Clear
4:55 AM - - N/A% 30.33 in 10.0 mi Calm Calm - N/A   Clear
5:15 AM - - N/A% 30.33 in 10.0 mi Calm Calm - N/A   Clear
5:35 AM - - N/A% 30.34 in 10.0 mi Calm Calm - N/A   Clear
5:55 AM - - N/A% 30.34 in 10.0 mi Calm Calm - N/A   Clear
6:15 AM - - N/A% 30.35 in 10.0 mi Calm Calm - N/A   Clear
6:35 AM - - N/A% 30.35 in 10.0 mi Calm Calm - N/A   Clear
6:55 AM - - N/A% 30.35 in 10.0 mi Calm Calm - N/A   Clear
7:15 AM - - N/A% 30.36 in 10.0 mi Calm Calm - N/A   Clear
7:35 AM - - N/A% 30.36 in 10.0 mi Calm Calm - N/A   Clear
7:55 AM - - N/A% 30.37 in 10.0 mi Calm Calm - N/A   Clear
8:15 AM - - N/A% 30.37 in 10.0 mi Calm Calm - N/A   Clear
8:35 AM - - N/A% 30.37 in 10.0 mi North 3.5 mph - N/A   Clear
8:55 AM - - N/A% 30.37 in 10.0 mi Calm Calm - N/A   Clear
9:15 AM - - N/A% 30.37 in 10.0 mi Calm Calm - N/A   Clear
9:35 AM - - N/A% 30.38 in 10.0 mi Calm Calm - N/A   Clear
9:55 AM 66.2 °F 59.0 °F 78% 30.38 in 10.0 mi North 5.8 mph - N/A   Clear
10:15 AM 68.0 °F 59.0 °F 73% 30.38 in 10.0 mi NE 5.8 mph - N/A   Clear
10:35 AM 69.8 °F 59.0 °F 68% 30.38 in 10.0 mi NE 8.1 mph - N/A   Clear
10:55 AM 69.8 °F 59.0 °F 68% 30.38 in 10.0 mi NNE 4.6 mph - N/A   Clear
11:15 AM 69.8 °F 59.0 °F 68% 30.38 in 10.0 mi North 3.5 mph - N/A   Clear
11:35 AM 71.6 °F 55.4 °F 57% 30.38 in 10.0 mi ENE 5.8 mph - N/A   Clear
11:55 AM 73.4 °F 57.2 °F 57% 30.37 in 10.0 mi NE 4.6 mph - N/A   Clear
12:15 PM 71.6 °F 55.4 °F 57% 30.37 in 10.0 mi Calm Calm - N/A   Clear
12:35 PM 73.4 °F 57.2 °F 57% 30.36 in 10.0 mi ENE 3.5 mph - N/A   Clear
12:55 PM 73.4 °F 57.2 °F 57% 30.35 in 10.0 mi NE 5.8 mph - N/A   Clear
1:15 PM 75.2 °F 57.2 °F 53% 30.35 in 10.0 mi Calm Calm - N/A   Clear
1:35 PM 77.0 °F 59.0 °F 54% 30.34 in 10.0 mi Calm Calm - N/A   Clear
1:55 PM 77.0 °F 59.0 °F 54% 30.33 in 10.0 mi Calm Calm - N/A   Clear
2:15 PM 77.0 °F 60.8 °F 57% 30.33 in 10.0 mi NE 5.8 mph - N/A   Scattered Clouds
2:35 PM 77.0 °F 59.0 °F 54% 30.31 in 10.0 mi Calm Calm - N/A   Scattered Clouds
2:55 PM 75.2 °F 59.0 °F 57% 30.30 in 10.0 mi NNE 3.5 mph - N/A   Mostly Cloudy
3:15 PM 78.8 °F 60.8 °F 54% 30.30 in 10.0 mi NE 4.6 mph - N/A   Mostly Cloudy
3:35 PM 77.0 °F 60.8 °F 57% 30.30 in 10.0 mi Calm Calm - N/A   Scattered Clouds
3:55 PM 77.0 °F 59.0 °F 54% 30.29 in 10.0 mi Calm Calm - N/A   Scattered Clouds
4:15 PM 78.8 °F 60.8 °F 54% 30.29 in 10.0 mi Calm Calm - N/A   Clear
4:35 PM 78.8 °F 60.8 °F 54% 30.28 in 10.0 mi Calm Calm - N/A   Scattered Clouds
4:55 PM 78.8 °F 59.0 °F 51% 30.28 in 10.0 mi Calm Calm - N/A   Scattered Clouds
5:15 PM 78.8 °F 60.8 °F 54% 30.27 in 10.0 mi East 3.5 mph - N/A   Clear
5:35 PM 77.0 °F 59.0 °F 54% 30.27 in 10.0 mi Calm Calm - N/A   Clear
5:55 PM 77.0 °F 60.8 °F 57% 30.27 in 10.0 mi Calm Calm - N/A   Clear
6:15 PM 77.0 °F 60.8 °F 57% 30.27 in 10.0 mi Calm Calm - N/A   Clear
6:35 PM 77.0 °F 60.8 °F 57% 30.27 in 10.0 mi Calm Calm - N/A   Clear
6:55 PM 69.8 °F 64.4 °F 83% 30.27 in 10.0 mi Calm Calm - N/A   Clear
7:15 PM 68.0 °F 68.0 °F 100% 30.27 in 10.0 mi Calm Calm - N/A   Clear
7:35 PM 68.0 °F 68.0 °F 100% 30.27 in 10.0 mi Calm Calm - N/A   Clear
7:55 PM - - N/A% 30.27 in 10.0 mi Calm Calm - N/A   Clear
8:15 PM - - N/A% 30.27 in 10.0 mi Calm Calm - N/A   Clear
8:35 PM - - N/A% 30.28 in 10.0 mi Calm Calm - N/A   Clear
8:55 PM - - N/A% 30.28 in 10.0 mi Calm Calm - N/A   Scattered Clouds
9:15 PM - - N/A% 30.28 in 10.0 mi Calm Calm - N/A   Mostly Cloudy
9:35 PM - - N/A% 30.28 in 10.0 mi Calm Calm - N/A   Mostly Cloudy
9:55 PM - - N/A% 30.28 in 10.0 mi Calm Calm - N/A   Scattered Clouds
10:15 PM - - N/A% 30.28 in 10.0 mi Calm Calm - N/A   Scattered Clouds
10:35 PM - - N/A% 30.29 in 10.0 mi Calm Calm - N/A   Mostly Cloudy
10:55 PM - - N/A% 30.29 in 10.0 mi Calm Calm - N/A   Mostly Cloudy
11:15 PM - - N/A% 30.29 in 10.0 mi Calm Calm - N/A   Scattered Clouds
11:35 PM - - N/A% 30.29 in 10.0 mi Calm Calm - N/A   Scattered Clouds
11:55 PM - - N/A% 30.29 in 10.0 mi Calm Calm - N/A   Clear